Погода в Шатое

Россия / Чеченская Республика     42°52′15″N   45°41′27″E
темп.,
°C
ветер,
м/с
пор.,
м/с
влажн.,
%
обл.,
%
осадки,
мм/ч
давл.,
гПа
погр.,
м
13 апреля, вт
вт1300:00+3ссв119347 0.0 102159
03:00+3с119690 0.0 1021160
06:00+3в118834 0.0 1021106
09:00+9ссв225917 0.0 1017613
12:00+8с437659 0.1 1018436
15:00+5ссз3296100 0.8 1019338
18:00+4сз1195100 0.9 1019332
21:00+4сз2297100 2.3 1019259
14 апреля, ср
ср1400:00+4ю129478 3.2 1018185
03:00+4вюв009331 4.1 101611
06:00+3ссз119657 0.4 101646
09:00+3ссз2296100 0.6 1017403
12:00+3с2297100 2.4 1017362
15:00+2сз1297100 4.6 1018248
18:00+3ююз1294100 2.4 1019118
21:00+2ююз218880 2.4 101919
15 апреля, чт
чт1500:000ю228289 0.0 102024
03:000ю32805 0.0 102027
06:000ю32744 0.0 102040
09:00+8ссз21500 0.0 1016725
12:00+11ссз33474 0.0 10151586
15:00+10ссз335848 0.4 10151264
18:00+7с227933 1.4 1017219
21:00+4ююз118521 1.4 101913
16 апреля, пт
пт1600:00+3ю228596 0.0 101931
03:00+3ю228081 0.0 101826
06:00+3ю2278100 0.0 101930
09:00+9с225785 0.0 10171068
12:00+11с225493 0.5 10151402
15:00+11с215963 1.4 10151182
18:00+9с117214 0.6 101545
21:00+5ю33790 0.7 101854
17 апреля, сб
сб1700:00+5ю337830 0.0 101940
03:00+4ю347571 0.0 101854
06:00+4ю2375100 0.0 101952
09:00+7с327598 0.0 1020660
12:00+5с3397100 0.2 1021360
15:00+4ссв2298100 0.4 1021372
18:00+4ссв2299100 0.1 1022224
21:00+4в1298100 0.1 1020138